Regional Weather Roundup
Issued by NWS Cleveland, OH

Home | Current Version | Previous Version | Text Only | Print | Product List | Glossary Off
Versions: 1 2 3 4 5 6 7 8 9 10 11 12 13 14 15 16 17 18 19 20 21 22 23 24 25 26 27 28 29 30 31 32 33 34 35 36 37 38 39 40 41 42 43 44 45 46 47 48 49 50

000
ASUS41 KCLE 252200
RWRCLE
OHIO REGIONAL WEATHER ROUNDUP
NATIONAL WEATHER SERVICE WILMINGTON, OH
600 PM EDT WED APR 25 2018

NOTE: "FAIR" INDICATES FEW OR NO CLOUDS BELOW 12,000 FEET WITH NO
SIGNIFICANT WEATHER AND/OR OBSTRUCTIONS TO VISIBILITY.

OHZ001>008-015>018-024>027-034-035-043-044-252300-
   NORTHWEST OHIO

CITY           SKY/WX    TMP DP  RH WIND       PRES   REMARKS
DEFIANCE       FAIR      63  35  35 N15G23    29.91S
FINDLAY        FAIR      64  37  36 NW10      29.89F
TOLEDO EXPRESS PTSUNNY   63  37  38 NW15      29.90S
TOLEDO EXEC    FAIR      63  37  38 N8        29.91S
LIMA           FAIR      61  41  47 NW7       29.91F
$$

OHZ009>014-019>023-028>033-038-089-252300-
   NORTHEAST OHIO

CITY           SKY/WX    TMP DP  RH WIND       PRES   REMARKS
CLE-HOPKINS    CLOUDY    49  42  77 N13       29.96R
CLE-LAKEFRONT  CLOUDY    46  41  82 N7        29.94R HAZE
CUY CO. ARPT   PTSUNNY   48  43  81 N12       29.93S
LORAIN-ELYRIA  CLOUDY    49  39  68 N15G24    29.94R
ASHTABULA      CLOUDY    44  42  93 NW13G21   29.90R
AKRON-CANTON   CLOUDY    50  41  71 N12G24    29.90S
WOOSTER        PTSUNNY   52  45  76 N12       29.92S
MANSFIELD      PTSUNNY   55  45  68 N10       29.91S
YOUNGSTOWN     CLOUDY    47  42  83 NW18      29.88R
$$

OHZ042-051>053-060>062-070>072-077>081-252300-
  SOUTHWEST OHIO

CITY           SKY/WX    TMP DP  RH WIND       PRES   REMARKS
CINC-COVINGTON PTSUNNY   65  45  48 NW15      29.92S
CINC-LUNKEN    PTSUNNY   64  47  53 N13       29.92S
HAMILTON       FAIR      65  47  52 N9        29.93S
DAYTON         NOT AVBL
WRIGHT-PAT AFB NOT AVBL
DAYTON GENERAL FAIR      64  45  49 N10       29.91F
WILMINGTON     FAIR      64  47  53 N14       29.92S
$$

OHZ036-037-039>041-045>050-054>059-063>069-073>076-082>088-252300-
  CENTRAL AND SOUTHEAST OHIO

CITY           SKY/WX    TMP DP  RH WIND       PRES   REMARKS
COLUMBUS       FAIR      60  48  64 N14       29.91R
OSU AIRPORT    PTSUNNY   58  46  64 N10       29.91R
BOLTON FIELD   MOSUNNY   61  48  63 N9        29.92R
RICKENBACK AFB NOT AVBL
NEWARK         CLOUDY    57  46  66 N10G18    29.91R
MARION         PTSUNNY   60  43  53 NW12      29.91F
LANCASTER      PTSUNNY   58  49  72 N10       29.91R
ZANESVILLE     CLOUDY    56  45  66 N13G21    29.90R
NEW PHILLY     CLOUDY    51  44  77 NW12      29.91R
$$




USA.gov is the U.S. government's official web portal to all federal, state and local government web resources and services.